Location: Newark
(48.7500°N, 7.4667°E)
Time: 22:39:56
(UTC+00:00)

Starlink (trailer) - Visible Passes

Search period start: 20 July 2019 00:00
Search period end: 30 July 2019 00:00
Orbit: 548 x 551 km, 53.0° (Epoch: 19 July)

Date Brightness Start Highest point End Pass type
(mag) Time Alt. Az. Time Alt. Az. Time Alt. Az.
20 Jul 4.3 00:50:05 35° SSE 00:50:24 36° SE 00:54:13 10° ENE visible
20 Jul 3.9 02:25:43 10° WSW 02:29:50 67° NNW 02:33:59 10° ENE visible
21 Jul 3.9 00:44:33 44° SSE 00:44:55 46° SE 00:48:54 10° ENE visible
21 Jul 4.1 02:20:22 10° W 02:24:29 59° NNW 02:28:36 10° ENE visible
22 Jul 3.6 00:38:59 53° S 00:39:28 58° SSE 00:43:33 10° ENE visible
22 Jul 4.3 02:15:03 10° W 02:19:08 53° NNW 02:23:13 10° ENE visible
23 Jul 3.5 00:33:21 58° SSW 00:34:02 72° SSE 00:38:10 10° ENE visible
23 Jul 4.5 02:09:45 10° W 02:13:47 49° N 02:17:51 10° ENE visible
23 Jul 5.9 22:52:03 13° E 22:52:03 13° E 22:52:38 10° E visible
24 Jul 3.5 00:27:41 53° WSW 00:28:36 86° SSE 00:32:46 10° ENE visible
24 Jul 4.6 02:04:27 10° W 02:08:28 47° N 02:12:29 10° ENE visible
24 Jul 5.6 22:46:19 16° E 22:46:19 16° E 22:47:27 10° E visible
25 Jul 3.6 00:21:56 43° WSW 00:23:12 80° NNW 00:27:23 10° ENE visible
25 Jul 4.7 01:59:07 10° WNW 02:03:08 45° N 02:07:09 10° ENE visible
25 Jul 5.3 22:40:28 21° E 22:40:28 21° E 22:42:11 10° ENE visible
26 Jul 3.8 00:16:04 33° W 00:17:49 69° NNW 00:21:58 10° ENE visible
26 Jul 4.7 01:53:48 10° WNW 01:57:48 45° N 02:01:49 10° ENE visible
26 Jul 4.7 22:34:27 30° E 22:34:27 30° E 22:36:52 10° ENE visible
27 Jul 4.1 00:10:02 23° W 00:12:27 61° NNW 00:16:34 10° ENE visible
27 Jul 4.7 01:48:27 10° WNW 01:52:29 46° N 01:56:29 10° E visible
27 Jul 3.9 22:28:08 48° ESE 22:28:08 48° ESE 22:31:31 10° ENE visible
28 Jul 4.3 00:03:42 14° W 00:07:05 54° NNW 00:11:11 10° ENE visible
28 Jul 4.6 01:43:06 10° WNW 01:47:08 48° N 01:51:10 10° E visible
28 Jul 5.8 20:45:27 10° E 20:45:27 10° E 20:45:33 10° E visible
28 Jul 3.5 22:20:54 46° SW 22:21:59 69° SSE 22:26:08 10° ENE visible
28 Jul 4.5 23:57:41 10° W 00:01:45 50° N 00:05:48 10° ENE visible
29 Jul 4.5 01:37:43 10° WNW 01:41:48 52° NNE 01:45:51 10° E visible
29 Jul 3.6 03:17:23 10° WNW 03:21:30 63° SSW 03:25:36 10° SE visible
29 Jul 4.8 20:34:19 10° S 20:37:25 21° SE 20:40:32 10° E visible
29 Jul 3.5 22:12:24 10° WSW 22:16:33 84° SSE 22:20:44 10° ENE visible
